Theta_e
302 301 302 302 304 304 303 302 303 302 303 303 302 300 300 300 301 303 304 303 303 303 303 301 301 299 296 295 295 295 295 294 293 295 295 298 299 300 301 302 303 303 303
303 302 302 303 303 303 302 303 303 303 302 304 302 300 299 299 299 300 301 303 302 301 301 302 301 300 299 297 295 296 295 295 294 294 296 297 298 300 300 300 301 302 302
303 302 302 303 302 301 302 303 304 304 302 303 301 300 299 299 298 299 299 300 300 301 302 301 301 300 300 298 297 295 295 295 294 293 294 296 297 298 299 300 300 300 301
304 302 302 302 302 302 303 302 303 304 302 302 301 300 300 299 298 298 299 299 299 299 300 301 301 301 300 300 298 297 296 295 296 294 294 295 295 298 297 296 296 298 297
304 303 302 303 303 303 302 303 304 304 304 302 302 300 300 298 297 298 298 299 298 299 299 300 302 303 307 306 300 300 299 298 298 296 294 294 295 295 294 295 293 295 296
303 303 304 304 304 303 303 303 303 304 303 302 302 301 300 298 299 301 303 299 299 298 298 299 299 302 302 305 306 307 305 301 298 296 295 294 295 294 295 294 292 291 289
303 304 305 304 304 304 303 303 303 303 302 301 301 301 301 302 300 300 302 302 300 300 298 297 299 300 302 300 301 300 300 299 299 299 295 296 294 295 295 293 292 292 291
303 304 305 305 304 304 302 302 302 303 302 302 302 302 301 301 300 299 301 304 302 302 303 300 300 301 300 300 300 299 299 299 299 298 297 297 297 297 296 295 294 293 293
303 304 305 305 304 302 301 301 301 301 301 302 302 303 302 303 300 299 300 302 302 302 302 301 300 300 298 297 299 298 298 299 299 299 299 298 297 296 297 296 292 290 289
304 305 306 305 303 301 301 300 301 301 302 302 303 303 302 303 300 299 300 302 302 302 302 300 297 298 296 295 299 298 296 296 297 298 297 297 296 297 297 296 294 290 290
307 306 306 305 303 302 300 300 301 301 301 301 301 303 303 304 304 298 297 303 302 300 298 298 299 296 295 294 295 297 296 296 296 296 296 296 296 296 296 296 296 293 291
306 306 304 303 302 301 300 301 301 301 300 301 301 302 303 305 299 296 296 297 299 298 297 297 298 294 293 293 296 294 294 295 296 295 295 294 294 294 295 296 297 297 296
304 302 301 301 301 301 300 301 300 300 300 301 301 301 302 303 299 295 294 295 296 297 298 298 294 293 293 295 295 295 295 296 295 294 294 293 295 296 295 295 295 296 296
301 299 299 299 299 301 301 302 301 301 301 301 301 300 300 299 298 297 297 297 295 297 297 297 295 294 294 295 296 296 296 296 295 294 294 295 295 295 294 295 293 294 293
299 299 299 300 301 302 302 302 302 303 300 300 300 300 299 298 298 294 294 296 296 295 296 296 295 295 295 295 295 295 296 296 296 295 294 293 293 293 293 294 293 293 292
299 300 300 301 301 302 302 302 296 294 292 291 292 296 296 293 292 292 292 291 291 292 294 294 294 294 294 293 294 295 296 296 295 295 294 293 292 292 292 293 293 293 292
299 300 300 300 302 302 302 300 300 297 293 291 291 292 292 291 291 291 291 290 290 292 294 294 293 293 293 295 295 295 295 295 296 294 294 293 293 292 292 292 292 293 294
301 298 302 302 301 299 300 301 300 297 296 296 293 292 291 291 291 291 291 293 295 294 294 293 293 293 294 295 295 295 294 294 294 294 293 293 293 292 292 292 292 292 293
302 303 302 301 300 300 300 300 299 296 295 295 296 294 293 291 291 290 291 294 293 294 294 293 294 294 295 295 295 295 294 293 292 293 292 292 292 291 291 292 293 290 291
302 297 297 300 299 299 298 297 296 295 295 295 295 295 296 295 295 294 295 294 294 294 293 293 294 294 295 296 295 294 293 293 292 292 292 291 291 291 291 291 293 293 294
302 303 297 302 302 299 298 298 297 296 295 295 294 292 285 295 294 294 294 294 294 294 293 293 293 293 294 294 293 292 291 290 291 291 290 290 290 290 291 292 292 295 296
303 302 302 303 299 296 297 297 297 296 295 294 294 293 286 294 294 294 294 295 295 295 294 293 293 293 293 292 291 290 288 288 289 289 288 288 289 290 291 291 292 294 296
303 303 303 300 296 293 296 296 296 295 295 295 294 294 294 294 294 294 295 295 294 294 294 293 293 293 293 292 290 289 287 287 287 287 286 288 289 290 291 291 294 294 295
302 302 299 296 296 295 295 295 295 292 295 294 294 293 293 293 293 293 293 293 293 292 292 292 292 292 292 292 290 288 288 287 287 288 288 288 289 290 293 294 293 292 294
299 297 296 295 295 294 294 294 295 294 294 294 293 293 293 292 291 291 291 290 290 289 289 290 290 290 289 289 288 287 286 284 285 285 288 289 291 293 293 291 291 292 294
297 296 296 295 294 294 294 294 293 294 293 293 293 292 291 290 289 288 288 287 287 287 287 288 289 288 288 288 287 285 284 284 284 284 285 290 292 292 291 290 291 292 294
Wind_Speed
6 6 6 5 4 2 2 2 1 1 0 2 3 3 3 4 4 3 3 3 4 2 1 2 2 1 1 2 1 0 1 2 3 3 3 4 5 8 8 7 8 8 8
7 6 6 5 4 4 4 2 1 2 2 2 2 3 3 3 3 3 2 2 2 3 4 4 5 3 4 4 2 2 3 2 3 8 4 4 4 8 7 9 8 7 9
8 7 5 5 4 5 4 3 3 4 3 2 2 2 1 1 1 1 1 2 3 3 4 5 6 5 7 5 4 3 3 2 3 4 6 3 4 3 7 7 7 8 7
8 7 6 5 6 4 4 4 3 4 4 3 4 3 2 2 3 3 3 3 4 3 4 5 6 5 7 7 6 7 4 5 4 5 6 6 3 6 4 6 9 8 9
8 7 6 5 4 3 3 3 4 5 4 3 3 3 3 3 3 4 4 4 5 6 5 5 5 8 12 8 5 7 6 4 6 7 8 5 5 6 8 6 8 9 8
9 9 6 5 4 5 4 4 3 4 4 3 4 4 5 4 7 8 7 4 5 5 6 6 4 11 9 14 12 11 4 6 8 5 5 5 7 7 5 7 8 8 6
9 7 7 5 5 5 4 4 3 3 3 4 4 4 5 6 9 11 10 5 6 7 8 4 6 6 9 7 10 8 8 10 9 6 6 6 7 7 7 8 9 8 8
8 8 6 6 5 4 5 4 3 2 3 3 4 5 4 6 11 12 11 7 7 9 8 5 7 8 8 7 6 7 8 8 6 3 4 7 7 9 7 7 9 8 8
9 8 7 7 6 5 5 5 3 2 2 4 3 5 5 9 10 12 8 6 7 8 5 4 6 7 8 4 6 6 8 8 4 3 8 11 11 10 8 6 6 6 6
9 8 7 6 6 6 5 4 3 2 3 2 4 4 7 9 11 10 5 4 5 4 5 4 4 5 8 6 4 6 7 6 6 9 11 8 7 7 10 5 5 6 6
9 7 6 6 6 5 4 3 2 2 2 3 5 6 7 7 8 8 5 1 2 3 3 4 5 10 8 6 4 4 3 4 7 8 6 5 6 6 6 5 6 6 6
9 7 6 6 5 5 5 2 1 2 3 4 5 8 4 5 3 5 3 1 2 2 3 3 4 9 8 9 5 3 2 6 6 5 6 6 6 6 7 7 9 9 6
8 6 5 4 4 4 4 3 2 2 3 5 4 6 7 4 1 3 5 7 4 1 2 4 5 8 8 5 4 6 7 6 5 6 6 6 6 7 8 7 7 8 9
8 6 5 5 5 3 1 1 2 3 4 5 5 4 5 4 1 1 3 3 5 4 4 5 6 4 4 5 6 7 6 5 5 5 6 6 6 5 6 5 5 6 6
7 6 5 3 3 1 2 3 3 3 3 5 2 1 2 3 1 3 4 3 3 2 2 4 5 5 8 8 6 5 6 5 6 5 5 6 6 6 6 5 5 6 5
7 5 4 3 2 1 1 2 3 3 5 5 5 3 2 4 7 8 8 7 7 2 4 4 5 8 7 7 7 8 6 7 6 6 6 5 6 6 7 7 5 5 6
8 5 3 4 2 2 2 1 1 2 8 14 11 8 6 7 9 9 8 10 10 5 3 5 6 6 6 6 6 6 7 6 7 6 6 6 6 7 7 7 6 6 7
6 8 4 3 2 2 2 1 2 3 3 3 8 7 8 10 9 9 6 4 5 5 3 6 7 6 5 6 6 6 7 6 6 7 6 6 6 6 7 7 6 6 6
5 3 3 2 2 3 1 1 4 5 5 5 4 6 6 8 9 9 8 4 3 3 5 7 6 7 6 5 6 7 7 6 7 6 7 6 6 6 7 6 7 9 8
5 7 4 2 1 1 2 5 6 5 6 5 4 3 2 4 4 4 4 3 3 3 5 7 7 7 7 7 8 8 8 8 7 6 7 7 7 6 7 8 7 7 7
4 4 4 1 2 2 4 5 5 6 6 5 4 3 4 5 3 3 3 3 3 4 5 6 7 7 7 7 7 8 8 7 8 8 7 7 7 8 7 7 8 9 9
4 3 2 2 3 4 5 5 6 7 6 6 4 3 5 4 3 3 2 3 3 4 4 5 6 5 5 6 7 8 7 8 9 9 8 8 8 8 8 8 9 9 9
3 3 2 3 4 6 6 6 6 6 6 6 4 4 4 4 3 4 4 3 4 5 6 6 6 6 4 5 6 7 7 8 8 8 9 9 9 9 8 9 10 10 9
4 4 5 6 6 6 7 7 6 6 7 5 4 4 4 4 4 4 4 4 5 6 6 6 7 8 8 7 6 7 7 8 8 9 12 10 10 10 9 10 10 12 10
4 6 7 7 7 7 8 7 6 6 5 5 4 4 3 3 4 5 5 5 5 6 7 7 6 10 10 12 11 14 13 12 11 11 9 10 11 13 10 10 11 11 11
6 7 6 6 7 7 7 7 6 6 5 4 4 4 4 4 4 5 5 6 6 7 8 7 9 13 14 10 12 16 14 15 13 14 11 8 9 9 10 11 14 9 10
Wind_Direction
166 166 160 166 165 150 180 219 181 174 53 119 102 78 58 42 28 34 45 37 61 14 340 336 338 340 343 308 324 8 151 197 256 283 254 294 290 304 311 314 313 312 320
166 161 172 166 175 168 206 249 217 229 242 211 148 95 62 54 41 44 28 2 357 331 327 320 300 301 279 251 260 341 294 260 277 301 305 309 287 308 300 306 315 313 317
159 163 172 183 183 187 215 245 245 206 221 212 215 152 122 35 340 318 306 323 309 309 313 298 296 301 287 283 285 285 270 282 250 268 293 284 292 309 320 308 304 308 310
163 168 175 190 197 195 220 236 225 196 200 211 207 226 211 253 269 283 291 291 299 299 288 288 288 286 277 277 271 264 269 290 294 266 285 293 291 310 297 305 310 311 309
166 170 188 195 192 197 217 243 197 193 214 233 211 235 251 261 262 263 281 294 310 315 302 290 293 294 304 280 238 264 256 281 297 298 293 290 304 312 315 323 304 307 303
166 183 176 181 187 204 205 194 207 215 196 198 225 241 267 266 266 269 262 269 271 261 281 294 293 298 305 311 286 278 255 287 277 278 287 286 292 295 300 309 306 308 320
167 174 179 177 190 205 199 188 195 182 178 221 243 253 264 270 269 273 267 258 263 271 268 255 287 292 297 300 307 310 303 304 264 248 264 285 300 305 301 301 307 304 302
168 174 173 176 190 195 186 200 181 197 202 231 255 259 273 273 269 273 280 272 267 263 280 246 256 280 294 320 309 313 309 296 292 250 236 291 294 294 286 293 294 299 292
169 173 175 175 179 177 192 196 185 207 220 240 253 284 280 286 271 271 277 282 280 281 295 262 262 294 297 334 324 308 307 317 333 296 300 291 285 299 301 300 306 305 302
169 178 172 174 176 183 193 188 193 200 236 270 292 268 272 279 291 298 286 282 293 317 335 331 304 315 324 328 309 313 313 333 339 334 325 317 299 304 314 294 289 290 294
160 155 160 172 185 183 165 184 177 234 290 299 290 286 277 272 292 320 323 174 295 330 347 340 357 348 345 346 297 329 319 313 325 319 310 305 314 311 305 293 288 277 281
148 155 171 179 168 158 173 179 206 250 288 287 286 294 270 282 295 0 5 177 132 14 349 338 349 348 9 8 34 89 347 329 321 321 316 319 313 311 310 313 300 292 270
140 161 169 160 155 152 179 211 251 243 266 280 276 293 305 335 31 35 62 59 66 15 342 355 7 11 12 22 352 320 330 331 321 318 316 309 308 304 301 296 290 282 280
143 153 153 157 162 167 198 210 248 269 275 270 283 296 309 333 16 25 47 33 27 39 27 23 18 16 9 339 331 323 320 311 308 304 305 305 301 308 307 304 298 302 296
144 148 147 150 145 203 257 245 251 250 259 288 289 291 346 27 43 78 55 37 40 24 3 20 12 352 340 343 330 324 330 322 329 318 305 307 306 309 309 307 299 300 283
138 142 157 140 169 208 269 318 40 57 19 10 232 195 65 88 87 79 79 70 60 37 51 19 351 346 344 334 329 331 335 336 327 313 312 311 310 313 313 314 301 301 298
142 149 140 144 193 243 243 244 98 51 76 49 44 90 82 107 92 92 86 71 43 50 43 5 349 339 330 326 330 332 327 326 314 310 312 309 307 307 314 314 311 309 310
138 152 149 150 169 203 234 217 171 150 91 48 33 57 72 88 77 61 61 54 26 31 22 355 341 329 321 331 333 332 324 322 324 325 321 318 315 308 310 313 311 306 306
133 136 123 148 200 232 272 113 129 120 112 113 99 70 54 71 71 55 47 51 19 27 2 351 343 335 334 332 332 329 325 314 314 315 321 318 313 308 309 302 299 298 289
114 131 144 176 211 166 128 121 117 117 127 119 113 87 30 47 42 27 26 22 47 25 359 351 346 341 342 342 339 335 327 328 325 323 322 316 313 305 298 304 302 300 295
128 142 149 171 222 157 148 128 119 120 122 116 91 54 56 80 50 17 8 44 48 14 353 347 344 343 347 341 341 336 328 321 322 323 321 315 313 311 307 300 299 299 299
129 155 177 170 139 145 128 126 124 121 119 112 100 69 65 65 37 22 36 78 28 358 346 338 337 339 346 338 335 332 326 325 329 326 318 314 312 310 313 311 310 302 303
152 163 120 118 119 120 110 114 117 118 116 109 100 83 56 40 27 31 38 19 4 356 349 345 336 331 335 337 331 330 317 317 316 313 308 310 309 315 316 309 310 313 314
152 139 142 133 122 114 116 121 118 113 118 108 95 76 60 53 45 36 14 357 352 347 345 345 344 341 337 334 332 330 317 315 313 313 314 305 309 314 314 314 315 318 314
141 132 137 133 126 122 120 119 124 122 114 107 94 84 77 61 40 20 6 356 349 345 344 345 346 340 339 333 332 333 327 317 312 311 313 306 306 314 320 323 327 328 332
124 119 121 115 111 116 119 122 123 122 115 101 90 83 67 45 25 9 0 355 349 346 345 345 342 342 340 334 334 328 325 330 328 328 323 314 324 328 335 333 335 335 342